,,PA_Meas_PMT16A,,PR_Meas_QMR101_102,,RH_Meas_QMH101,,SR_Meas_QMS101,,TA_Meas_QMH101,,GenWind,,GenWind,
time,status,PA,status,PR,status,RH,status,SR,status,TA,status,DirAvg,status,SpdAvg,
2012-04-20, 00:00:04,VALID,918.281,VALID,0,VALID,97.3739,VALID,0.107441,VALID,19.4268,VALID,138,VALID,1.25586,
2012-04-20, 00:01:04,VALID,918.276,VALID,0,VALID,97.351,VALID,0,VALID,19.4074,VALID,141,VALID,0.794922,
2012-04-20, 00:02:04,VALID,918.272,VALID,0,VALID,97.3891,VALID,0,VALID,19.4478,VALID,145,VALID,0.947266,
2012-04-20, 00:03:04,VALID,918.257,VALID,0,VALID,97.3891,VALID,0.107441,VALID,19.4688,VALID,131,VALID,0.853125,
2012-04-20, 00:04:04,VALID,918.238,VALID,0,VALID,97.3663,VALID,0,VALID,19.4074,VALID,131,VALID,0.833594,
2012-04-20, 00:05:04,VALID,918.231,VALID,0,VALID,97.3968,VALID,0,VALID,19.4268,VALID,131,VALID,0.616016,
2012-04-20, 00:06:04,VALID,918.228,VALID,0,VALID,97.4044,VALID,0,VALID,19.4074,VALID,131,VALID,0.425391,
2012-04-20, 00:07:04,VALID,918.219,VALID,0,VALID,97.3891,VALID,0,VALID,19.4074,VALID,131,VALID,0.831641,
2012-04-20, 00:08:04,VALID,918.193,VALID,0,VALID,97.3968,VALID,0,VALID,19.4283,VALID,131,VALID,1.14063,
2012-04-20, 00:09:04,VALID,918.16,VALID,0,VALID,97.4044,VALID,0,VALID,19.4074,VALID,131,VALID,1.05508,
2012-04-20, 00:10:04,VALID,918.154,VALID,0,VALID,97.4044,VALID,0,VALID,19.4508,VALID,131,VALID,0.728516,
2012-04-20, 00:11:04,VALID,918.113,VALID,0,VALID,97.4196,VALID,0.107441,VALID,19.4088,VALID,131,VALID,0.713281,
2012-04-20, 00:12:04,VALID,918.097,VALID,0,VALID,97.4044,VALID,0,VALID,19.4074,VALID,131,VALID,0.814062,
2012-04-20, 00:13:04,VALID,918.091,VALID,0,VALID,97.412,VALID,0,VALID,19.4268,VALID,131,VALID,0.697656,
2012-04-20, 00:14:04,VALID,918.08,VALID,0,VALID,97.4196,VALID,0.107441,VALID,19.4283,VALID,131,VALID,0.826172,
2012-04-20, 00:15:04,VALID,918.04,VALID,0,VALID,97.4273,VALID,0,VALID,19.4088,VALID,131,VALID,0.433594,
2012-04-20, 00:16:04,VALID,918.048,VALID,0,VALID,97.4425,VALID,0,VALID,19.4478,VALID,131,VALID,0.292969,
2012-04-20, 00:17:04,VALID,918.03,VALID,0,VALID,97.4349,VALID,0,VALID,19.4478,VALID,131,VALID,0.399219,
2012-04-20, 00:18:04,VALID,918.042,VALID,0,VALID,97.4425,VALID,0,VALID,19.4688,VALID,131,VALID,0.344922,
2012-04-20, 00:19:04,VALID,918.014,VALID,0,VALID,97.4425,VALID,0,VALID,19.4283,VALID,131,VALID,0,
2012-04-20, 00:20:04,VALID,918.011,VALID,0,VALID,97.4501,VALID,0,VALID,19.4673,VALID,131,VALID,0,
2012-04-20, 00:21:04,VALID,918.002,VALID,0,VALID,97.4501,VALID,0,VALID,19.4868,VALID,131,VALID,0,
2012-04-20, 00:22:04,VALID,918.003,VALID,0,VALID,97.4577,VALID,0,VALID,19.4868,VALID,131,VALID,0.567969,
2012-04-20, 00:23:04,VALID,917.992,VALID,0,VALID,97.4425,VALID,0,VALID,19.4478,VALID,131,VALID,0.308594,
2012-04-20, 00:24:04,VALID,917.973,VALID,0,VALID,97.4349,VALID,0,VALID,19.4463,VALID,131,VALID,0,
2012-04-20, 00:25:04,VALID,917.953,VALID,0,VALID,97.4501,VALID,0.107441,VALID,19.4673,VALID,131,VALID,0,
2012-04-20, 00:26:04,VALID,917.917,VALID,0,VALID,97.4425,VALID,0,VALID,19.4493,VALID,131,VALID,0,
2012-04-20, 00:27:04,VALID,917.905,VALID,0,VALID,97.4196,VALID,0,VALID,19.4283,VALID,131,VALID,0,
2012-04-20, 00:28:04,VALID,917.927,VALID,0,VALID,97.4273,VALID,0,VALID,19.4493,VALID,131,VALID,0,
2012-04-20, 00:29:04,VALID,917.884,VALID,0,VALID,97.4501,VALID,0.107441,VALID,19.4493,VALID,131,VALID,0,
2012-04-20, 00:30:04,VALID,917.868,VALID,0,VALID,97.4273,VALID,0,VALID,19.4088,VALID,131,VALID,0.400391,
2012-04-20, 00:31:04,VALID,917.861,VALID,0,VALID,97.4196,VALID,0,VALID,19.3893,VALID,131,VALID,0.602344,
2012-04-20, 00:32:04,VALID,917.853,VALID,0,VALID,97.412,VALID,0,VALID,19.3698,VALID,131,VALID,0.839063,
2012-04-20, 00:33:04,VALID,917.826,VALID,0,VALID,97.412,VALID,0,VALID,19.3698,VALID,131,VALID,0.635547,
2012-04-20, 00:34:04,VALID,917.827,VALID,0,VALID,97.412,VALID,0,VALID,19.3893,VALID,131,VALID,0.797656,
2012-04-20, 00:35:04,VALID,917.828,VALID,0,VALID,97.4196,VALID,0,VALID,19.3698,VALID,131,VALID,0.516797,
2012-04-20, 00:36:04,VALID,917.849,VALID,0,VALID,97.4425,VALID,0,VALID,19.3503,VALID,131,VALID,0.604297,
2012-04-20, 00:37:04,VALID,917.816,VALID,0,VALID,97.4273,VALID,0,VALID,19.3518,VALID,131,VALID,0.664453,
2012-04-20, 00:38:04,VALID,917.776,VALID,0,VALID,97.4425,VALID,0,VALID,19.3518,VALID,131,VALID,0.402734,
2012-04-20, 00:39:04,VALID,917.784,VALID,0,VALID,97.4349,VALID,0,VALID,19.3503,VALID,131,VALID,0.369922,
2012-04-20, 00:40:04,VALID,917.786,VALID,0,VALID,97.4425,VALID,0,VALID,19.3308,VALID,131,VALID,0.416406,
2012-04-20, 00:41:04,VALID,917.756,VALID,0,VALID,97.4501,VALID,0,VALID,19.3323,VALID,131,VALID,0.408203,
2012-04-20, 00:42:04,VALID,917.745,VALID,0,VALID,97.4654,VALID,0,VALID,19.3113,VALID,131,VALID,0.5125,
2012-04-20, 00:43:04,VALID,917.729,VALID,0,VALID,97.4577,VALID,0,VALID,19.3113,VALID,131,VALID,0.497656,
2012-04-20, 00:44:04,VALID,917.732,VALID,0,VALID,97.4806,VALID,0,VALID,19.2514,VALID,131,VALID,0.354297,
2012-04-20, 00:45:04,VALID,917.728,VALID,0,VALID,97.4654,VALID,0,VALID,19.2933,VALID,131,VALID,0.315234,
2012-04-20, 00:46:04,VALID,917.716,VALID,0,VALID,97.4882,VALID,0,VALID,19.2918,VALID,131,VALID,0.255469,
2012-04-20, 00:47:04,VALID,917.699,VALID,0,VALID,97.4959,VALID,0.107441,VALID,19.2723,VALID,131,VALID,0.423438,
2012-04-20, 00:48:04,VALID,917.703,VALID,0,VALID,97.4806,VALID,0,VALID,19.2514,VALID,131,VALID,0.262891,
2012-04-20, 00:49:04,VALID,917.702,VALID,0,VALID,97.5111,VALID,0,VALID,19.2723,VALID,131,VALID,0.164453,
2012-04-20, 00:50:04,VALID,917.693,VALID,0,VALID,97.4959,VALID,0,VALID,19.2904,VALID,131,VALID,0.457031,
2012-04-20, 00:51:04,VALID,917.709,VALID,0,VALID,97.5187,VALID,0,VALID,19.2918,VALID,131,VALID,0.389453,
2012-04-20, 00:52:04,VALID,917.727,VALID,0,VALID,97.534,VALID,0,VALID,19.2723,VALID,131,VALID,0.508594,
2012-04-20, 00:53:04,VALID,917.752,VALID,0,VALID,97.5111,VALID,0,VALID,19.2514,VALID,131,VALID,0.621875,
2012-04-20, 00:54:04,VALID,917.753,VALID,0,VALID,97.4959,VALID,0,VALID,19.2528,VALID,131,VALID,0.583984,
2012-04-20, 00:55:04,VALID,917.764,VALID,0,VALID,97.5264,VALID,0,VALID,19.2528,VALID,131,VALID,0.523438,
2012-04-20, 00:56:04,VALID,917.769,VALID,0,VALID,97.5264,VALID,0,VALID,19.2334,VALID,131,VALID,0.462891,
2012-04-20, 00:57:04,VALID,917.783,VALID,0,VALID,97.5416,VALID,0.107441,VALID,19.2334,VALID,131,VALID,0.432422,
2012-04-20, 00:58:04,VALID,917.775,VALID,0,VALID,97.5187,VALID,0,VALID,19.2348,VALID,131,VALID,0.723828,
2012-04-20, 00:59:04,VALID,917.757,VALID,0,VALID,97.534,VALID,0,VALID,19.2334,VALID,131,VALID,0.684766,
2012-04-20, 01:00:04,VALID,917.762,VALID,0,VALID,97.5264,VALID,0,VALID,19.2139,VALID,131,VALID,0.712891,
2012-04-20, 01:01:04,VALID,917.729,VALID,0,VALID,97.5416,VALID,0,VALID,19.2139,VALID,131,VALID,0.619141,
2012-04-20, 01:02:04,VALID,917.715,VALID,0,VALID,97.5264,VALID,0,VALID,19.1944,VALID,131,VALID,0.583984,
2012-04-20, 01:03:04,VALID,917.719,VALID,0,VALID,97.5416,VALID,0,VALID,19.1944,VALID,131,VALID,0.544531,
2012-04-20, 01:04:04,VALID,917.742,VALID,0,VALID,97.5492,VALID,0,VALID,19.1749,VALID,131,VALID,0.155469,
2012-04-20, 01:05:04,VALID,917.708,VALID,0,VALID,97.5721,VALID,0,VALID,19.1944,VALID,131,VALID,0.361328,
2012-04-20, 01:06:04,VALID,917.693,VALID,0,VALID,97.5492,VALID,0,VALID,19.1734,VALID,131,VALID,0.166016,
2012-04-20, 01:07:04,VALID,917.688,VALID,0,VALID,97.5569,VALID,0,VALID,19.1944,VALID,131,VALID,0.501953,
2012-04-20, 01:08:04,VALID,917.672,VALID,0,VALID,97.5569,VALID,0,VALID,19.1944,VALID,131,VALID,0.411328,
2012-04-20, 01:09:04,VALID,917.645,VALID,0,VALID,97.5492,VALID,0,VALID,19.2139,VALID,131,VALID,0.619531,
2012-04-20, 01:10:04,VALID,917.645,VALID,0,VALID,97.5721,VALID,0,VALID,19.2139,VALID,131,VALID,0.565234,
2012-04-20, 01:11:04,VALID,917.643,VALID,0,VALID,97.5721,VALID,0,VALID,19.2334,VALID,131,VALID,0.25,
2012-04-20, 01:12:04,VALID,917.628,VALID,0,VALID,97.5721,VALID,0,VALID,19.2528,VALID,131,VALID,0.324609,
2012-04-20, 01:13:04,VALID,917.649,VALID,0,VALID,97.5721,VALID,0,VALID,19.2334,VALID,131,VALID,0.0808594,
2012-04-20, 01:14:04,VALID,917.615,VALID,0,VALID,97.5721,VALID,0,VALID,19.2738,VALID,131,VALID,0,
2012-04-20, 01:15:04,VALID,917.611,VALID,0,VALID,97.5645,VALID,0,VALID,19.2528,VALID,131,VALID,0.263281,
2012-04-20, 01:16:04,VALID,917.624,VALID,0,VALID,97.5645,VALID,0,VALID,19.2528,VALID,131,VALID,0.403125,
2012-04-20, 01:17:04,VALID,917.593,VALID,0,VALID,97.5797,VALID,0.107441,VALID,19.2528,VALID,131,VALID,0.582031,
2012-04-20, 01:18:04,VALID,917.615,VALID,0,VALID,97.5797,VALID,0,VALID,19.2738,VALID,131,VALID,0.516797,
2012-04-20, 01:19:04,VALID,917.587,VALID,0,VALID,97.5873,VALID,0,VALID,19.2319,VALID,131,VALID,0.391797,
2012-04-20, 01:20:04,VALID,917.583,VALID,0,VALID,97.5721,VALID,0,VALID,19.2528,VALID,131,VALID,0.386719,
2012-04-20, 01:21:04,VALID,917.568,VALID,0,VALID,97.5721,VALID,0,VALID,19.2334,VALID,131,VALID,0.630078,
2012-04-20, 01:22:04,VALID,917.53,VALID,0,VALID,97.5797,VALID,0.107441,VALID,19.2334,VALID,131,VALID,0.583203,
2012-04-20, 01:23:04,VALID,917.542,VALID,0,VALID,97.5797,VALID,0,VALID,19.2514,VALID,131,VALID,0.785156,
2012-04-20, 01:24:04,VALID,917.498,VALID,0,VALID,97.595,VALID,0,VALID,19.2528,VALID,131,VALID,0.548047,
2012-04-20, 01:25:04,VALID,917.502,VALID,0,VALID,97.5721,VALID,0,VALID,19.2334,VALID,131,VALID,0.613281,
2012-04-20, 01:26:04,VALID,917.496,VALID,0,VALID,97.595,VALID,0,VALID,19.2139,VALID,131,VALID,0.764063,
2012-04-20, 01:27:04,VALID,917.466,VALID,0,VALID,97.5645,VALID,0,VALID,19.2348,VALID,131,VALID,0.563281,
2012-04-20, 01:28:04,VALID,917.451,VALID,0,VALID,97.5721,VALID,0,VALID,19.1944,VALID,131,VALID,0.849609,
2012-04-20, 01:29:04,VALID,917.444,VALID,0,VALID,97.5721,VALID,0,VALID,19.1749,VALID,131,VALID,0.680078,
2012-04-20, 01:30:04,VALID,917.449,VALID,0,VALID,97.5645,VALID,0,VALID,19.1749,VALID,131,VALID,0.710547,
2012-04-20, 01:31:04,VALID,917.391,VALID,0,VALID,97.5569,VALID,0,VALID,19.1749,VALID,131,VALID,0.746094,
2012-04-20, 01:32:04,VALID,917.399,VALID,0,VALID,97.5416,VALID,0,VALID,19.1958,VALID,131,VALID,0.959766,
2012-04-20, 01:33:04,VALID,917.368,VALID,0,VALID,97.534,VALID,0,VALID,19.1734,VALID,132,VALID,0.966016,
2012-04-20, 01:34:05,VALID,917.364,VALID,0,VALID,97.5264,VALID,0,VALID,19.1734,VALID,138,VALID,0.998047,
2012-04-20, 01:35:05,VALID,917.33,VALID,0,VALID,97.5416,VALID,0,VALID,19.1944,VALID,140,VALID,0.598828,
2012-04-20, 01:36:05,VALID,917.34,VALID,0,VALID,97.5187,VALID,0,VALID,19.1929,VALID,140,VALID,0.430469,
2012-04-20, 01:37:05,VALID,917.342,VALID,0,VALID,97.5416,VALID,0,VALID,19.2139,VALID,140,VALID,0.491406,
2012-04-20, 01:38:05,VALID,917.317,VALID,0,VALID,97.5187,VALID,0,VALID,19.1944,VALID,140,VALID,0.977344,
2012-04-20, 01:39:05,VALID,917.283,VALID,0,VALID,97.5187,VALID,0,VALID,19.1734,VALID,140,VALID,1.12656,
2012-04-20, 01:40:05,VALID,917.289,VALID,0,VALID,97.5111,VALID,0,VALID,19.2139,VALID,140,VALID,1.12305,
2012-04-20, 01:41:05,VALID,917.266,VALID,0,VALID,97.5187,VALID,0,VALID,19.2348,VALID,140,VALID,1.04883,
2012-04-20, 01:42:05,VALID,917.274,VALID,0,VALID,97.5111,VALID,0,VALID,19.2139,VALID,140,VALID,0.845703,
2012-04-20, 01:43:05,VALID,917.263,VALID,0,VALID,97.5111,VALID,0,VALID,19.2139,VALID,140,VALID,0.384375,
2012-04-20, 01:44:05,VALID,917.22,VALID,0,VALID,97.5416,VALID,0,VALID,19.2334,VALID,140,VALID,0.670313,
2012-04-20, 01:45:05,VALID,917.271,VALID,0,VALID,97.5264,VALID,0,VALID,19.2139,VALID,140,VALID,0.742188,
2012-04-20, 01:46:05,VALID,917.223,VALID,0,VALID,97.534,VALID,0,VALID,19.1929,VALID,140,VALID,0.722656,
2012-04-20, 01:47:05,VALID,917.23,VALID,0,VALID,97.534,VALID,0,VALID,19.1929,VALID,140,VALID,0.569141,
2012-04-20, 01:48:05,VALID,917.226,VALID,0,VALID,97.5187,VALID,0,VALID,19.1944,VALID,140,VALID,0.553125,
2012-04-20, 01:49:05,VALID,917.224,VALID,0,VALID,97.534,VALID,0,VALID,19.1539,VALID,140,VALID,0.769531,
2012-04-20, 01:50:05,VALID,917.211,VALID,0,VALID,97.5416,VALID,0,VALID,19.1554,VALID,140,VALID,0.655078,
2012-04-20, 01:51:05,VALID,917.169,VALID,0,VALID,97.5264,VALID,0,VALID,19.1359,VALID,140,VALID,0.775,
2012-04-20, 01:52:05,VALID,917.165,VALID,0,VALID,97.5264,VALID,0,VALID,19.0954,VALID,140,VALID,0.895312,
2012-04-20, 01:53:05,VALID,917.158,VALID,0,VALID,97.5111,VALID,0,VALID,19.1164,VALID,140,VALID,0.941406,
2012-04-20, 01:54:05,VALID,917.154,VALID,0,VALID,97.5035,VALID,0,VALID,19.1164,VALID,140,VALID,0.830469,
2012-04-20, 01:55:05,VALID,917.126,VALID,0,VALID,97.534,VALID,0,VALID,19.1164,VALID,140,VALID,0.973437,
2012-04-20, 01:56:05,VALID,917.133,VALID,0,VALID,97.4882,VALID,0,VALID,19.1164,VALID,140,VALID,0.670703,
2012-04-20, 01:57:05,VALID,917.096,VALID,0,VALID,97.4959,VALID,0.107441,VALID,19.1164,VALID,140,VALID,0.778906,
2012-04-20, 01:58:05,VALID,917.083,VALID,0,VALID,97.5035,VALID,0,VALID,19.0969,VALID,140,VALID,0.525781,
2012-04-20, 01:59:05,VALID,917.072,VALID,0,VALID,97.4882,VALID,0,VALID,19.0774,VALID,140,VALID,0.571094,
2012-04-20, 02:00:05,VALID,917.043,VALID,0,VALID,97.4959,VALID,0,VALID,19.1178,VALID,140,VALID,0.689844,
2012-04-20, 02:01:05,VALID,917.012,VALID,0,VALID,97.5111,VALID,0,VALID,19.0774,VALID,140,VALID,0.508203,
2012-04-20, 02:02:05,VALID,916.983,VALID,0,VALID,97.4806,VALID,0,VALID,19.0969,VALID,140,VALID,0.557422,
2012-04-20, 02:03:05,VALID,916.96,VALID,0,VALID,97.4959,VALID,0,VALID,19.0969,VALID,140,VALID,0.5875,
2012-04-20, 02:04:05,VALID,916.917,VALID,0,VALID,97.473,VALID,0,VALID,19.0579,VALID,140,VALID,0.546875,
2012-04-20, 02:05:05,VALID,916.878,VALID,0,VALID,97.473,VALID,0,VALID,19.0579,VALID,140,VALID,0.550781,
2012-04-20, 02:06:05,VALID,916.852,VALID,0,VALID,97.4882,VALID,0,VALID,19.0593,VALID,140,VALID,0.470313,
2012-04-20, 02:07:05,VALID,916.891,VALID,0,VALID,97.4882,VALID,0,VALID,19.0189,VALID,140,VALID,0.440234,
2012-04-20, 02:08:05,VALID,916.827,VALID,0,VALID,97.473,VALID,0,VALID,18.9994,VALID,140,VALID,0.353516,
2012-04-20, 02:09:05,VALID,916.796,VALID,0,VALID,97.4654,VALID,0,VALID,18.9799,VALID,140,VALID,0.494922,
2012-04-20, 02:10:05,VALID,916.809,VALID,0,VALID,97.4959,VALID,0,VALID,18.9799,VALID,140,VALID,0.538281,
2012-04-20, 02:11:05,VALID,916.772,VALID,0,VALID,97.4806,VALID,0,VALID,18.9799,VALID,140,VALID,0.839453,
2012-04-20, 02:12:05,VALID,916.76,VALID,0,VALID,97.5035,VALID,0,VALID,18.9799,VALID,140,VALID,0.783203,
2012-04-20, 02:13:05,VALID,916.717,VALID,0,VALID,97.4806,VALID,0,VALID,18.9799,VALID,140,VALID,0.989844,
2012-04-20, 02:14:05,VALID,916.698,VALID,0,VALID,97.4882,VALID,0,VALID,18.9799,VALID,140,VALID,1.00898,
2012-04-20, 02:15:05,VALID,916.645,VALID,0,VALID,97.4882,VALID,0,VALID,18.9994,VALID,140,VALID,0.982422,
2012-04-20, 02:16:05,VALID,916.637,VALID,0,VALID,97.4806,VALID,0,VALID,18.9799,VALID,140,VALID,0.794141,
2012-04-20, 02:17:05,VALID,916.594,VALID,0,VALID,97.473,VALID,0,VALID,19.0203,VALID,140,VALID,0.225,
2012-04-20, 02:18:05,VALID,916.589,VALID,0,VALID,97.4959,VALID,0,VALID,18.9785,VALID,140,VALID,0.0320312,
2012-04-20, 02:19:05,VALID,916.578,VALID,0,VALID,97.473,VALID,0,VALID,18.9994,VALID,140,VALID,0.371875,
2012-04-20, 02:20:05,VALID,916.551,VALID,0,VALID,97.473,VALID,0,VALID,19.0189,VALID,140,VALID,0.263672,
2012-04-20, 02:21:05,VALID,916.528,VALID,0,VALID,97.473,VALID,0,VALID,19.0384,VALID,140,VALID,0,
2012-04-20, 02:22:05,VALID,916.504,VALID,0,VALID,97.5035,VALID,0,VALID,19.0384,VALID,140,VALID,0.00351562,
2012-04-20, 02:23:05,VALID,916.472,VALID,0,VALID,97.5111,VALID,0,VALID,19.0384,VALID,140,VALID,0,
2012-04-20, 02:24:05,VALID,916.488,VALID,0,VALID,97.5035,VALID,0,VALID,19.0788,VALID,140,VALID,0,
2012-04-20, 02:25:05,VALID,916.462,VALID,0,VALID,97.5111,VALID,0,VALID,19.0788,VALID,140,VALID,0,
2012-04-20, 02:26:05,VALID,916.456,VALID,0,VALID,97.4806,VALID,0,VALID,19.0203,VALID,140,VALID,0,
2012-04-20, 02:27:05,VALID,916.456,VALID,0,VALID,97.4882,VALID,0,VALID,18.9409,VALID,140,VALID,0,
2012-04-20, 02:28:05,VALID,916.429,VALID,0,VALID,97.4349,VALID,0,VALID,18.9409,VALID,140,VALID,0.290625,
2012-04-20, 02:29:05,VALID,916.393,VALID,0,VALID,97.4425,VALID,0,VALID,18.9214,VALID,140,VALID,0.573047,
2012-04-20, 02:30:05,VALID,916.362,VALID,0,VALID,97.4577,VALID,0,VALID,18.9814,VALID,140,VALID,0.548828,
2012-04-20, 02:31:05,VALID,916.351,VALID,0,VALID,97.473,VALID,0,VALID,18.9994,VALID,140,VALID,0.392188,
2012-04-20, 02:32:05,VALID,916.351,VALID,0,VALID,97.473,VALID,0,VALID,19.0189,VALID,140,VALID,0,
2012-04-20, 02:33:05,VALID,916.311,VALID,0,VALID,97.4654,VALID,0,VALID,18.9814,VALID,140,VALID,0,
2012-04-20, 02:34:05,VALID,916.295,VALID,0,VALID,97.4501,VALID,0,VALID,18.9409,VALID,140,VALID,0.367188,
2012-04-20, 02:35:05,VALID,916.304,VALID,0,VALID,97.4273,VALID,0,VALID,18.8824,VALID,140,VALID,0,
2012-04-20, 02:36:05,VALID,916.263,VALID,0,VALID,97.4273,VALID,0,VALID,18.8629,VALID,140,VALID,0,
2012-04-20, 02:37:05,VALID,916.253,VALID,0,VALID,97.4425,VALID,0,VALID,18.8629,VALID,140,VALID,0,
2012-04-20, 02:38:05,VALID,916.203,VALID,0,VALID,97.4349,VALID,0,VALID,18.8629,VALID,140,VALID,0,
2012-04-20, 02:39:05,VALID,916.203,VALID,0,VALID,97.4349,VALID,0,VALID,18.9019,VALID,140,VALID,0,
2012-04-20, 02:40:05,VALID,916.166,VALID,0,VALID,97.4577,VALID,0,VALID,18.9214,VALID,140,VALID,0,
2012-04-20, 02:41:05,VALID,916.162,VALID,0,VALID,97.4425,VALID,0.107441,VALID,18.9619,VALID,140,VALID,0,
2012-04-20, 02:42:05,VALID,916.152,VALID,0,VALID,97.4577,VALID,0,VALID,18.9409,VALID,140,VALID,0,
2012-04-20, 02:43:05,VALID,916.126,VALID,0,VALID,97.4806,VALID,0,VALID,18.9214,VALID,140,VALID,0,
2012-04-20, 02:44:05,VALID,916.082,VALID,0,VALID,97.5035,VALID,0,VALID,18.9424,VALID,140,VALID,0,
2012-04-20, 02:45:05,VALID,916.113,VALID,0,VALID,97.4882,VALID,0,VALID,18.8824,VALID,140,VALID,0,
2012-04-20, 02:46:05,VALID,916.093,VALID,0,VALID,97.473,VALID,0,VALID,18.8629,VALID,140,VALID,0,
2012-04-20, 02:47:05,VALID,916.064,VALID,0,VALID,97.4425,VALID,0,VALID,18.7864,VALID,140,VALID,0,
2012-04-20, 02:48:05,VALID,916.032,VALID,0,VALID,97.4501,VALID,0,VALID,18.7655,VALID,140,VALID,0,
2012-04-20, 02:49:05,VALID,916.005,VALID,0,VALID,97.4196,VALID,0,VALID,18.785,VALID,140,VALID,0,
2012-04-20, 02:50:05,VALID,916.002,VALID,0,VALID,97.4273,VALID,0,VALID,18.8045,VALID,140,VALID,0,
2012-04-20, 02:51:05,VALID,915.995,VALID,0,VALID,97.4425,VALID,0,VALID,18.8449,VALID,140,VALID,0,
2012-04-20, 02:52:05,VALID,916.001,VALID,0,VALID,97.4654,VALID,0,VALID,18.8059,VALID,140,VALID,0.504297,
2012-04-20, 02:53:05,VALID,915.962,VALID,0,VALID,97.4882,VALID,0,VALID,18.7864,VALID,140,VALID,0.458984,
2012-04-20, 02:54:05,VALID,915.981,VALID,0,VALID,97.473,VALID,0,VALID,18.707,VALID,140,VALID,0.366016,
2012-04-20, 02:55:05,VALID,915.926,VALID,0,VALID,97.4806,VALID,0,VALID,18.6889,VALID,140,VALID,0.357812,
2012-04-20, 02:56:05,VALID,915.913,VALID,0,VALID,97.4654,VALID,0,VALID,18.6485,VALID,140,VALID,0.373437,
2012-04-20, 02:57:05,VALID,915.865,VALID,0,VALID,97.4577,VALID,0,VALID,18.6485,VALID,140,VALID,0.206641,
2012-04-20, 02:58:05,VALID,915.858,VALID,0,VALID,97.473,VALID,0,VALID,18.629,VALID,140,VALID,0,
2012-04-20, 02:59:05,VALID,915.83,VALID,0,VALID,97.4882,VALID,0,VALID,18.6485,VALID,140,VALID,0,
2012-04-20, 03:00:05,VALID,915.823,VALID,0,VALID,97.4806,VALID,0,VALID,18.629,VALID,140,VALID,0,
2012-04-20, 03:01:05,VALID,915.803,VALID,0,VALID,97.4806,VALID,0,VALID,18.629,VALID,140,VALID,0.411719,
2012-04-20, 03:02:05,VALID,915.796,VALID,0,VALID,97.5111,VALID,0,VALID,18.6095,VALID,140,VALID,0.387891,
2012-04-20, 03:03:05,VALID,915.765,VALID,0,VALID,97.5111,VALID,0,VALID,18.5914,VALID,140,VALID,0.440625,
2012-04-20, 03:04:05,VALID,915.778,VALID,0,VALID,97.4959,VALID,0,VALID,18.5914,VALID,140,VALID,0.331641,
2012-04-20, 03:05:05,VALID,915.756,VALID,0,VALID,97.5035,VALID,0,VALID,18.59,VALID,140,VALID,0.393359,
2012-04-20, 03:06:05,VALID,915.772,VALID,0,VALID,97.5264,VALID,0,VALID,18.6304,VALID,140,VALID,0.294141,
2012-04-20, 03:07:05,VALID,915.784,VALID,0,VALID,97.5416,VALID,0,VALID,18.6694,VALID,140,VALID,0.471484,
2012-04-20, 03:08:05,VALID,915.762,VALID,0,VALID,97.5492,VALID,0,VALID,18.707,VALID,140,VALID,0.548047,
2012-04-20, 03:09:05,VALID,915.811,VALID,0,VALID,97.5492,VALID,0,VALID,18.7084,VALID,140,VALID,0.683594,
2012-04-20, 03:10:05,VALID,915.764,VALID,0,VALID,97.5645,VALID,0,VALID,18.6485,VALID,140,VALID,0.947656,
2012-04-20, 03:11:05,VALID,915.75,VALID,0,VALID,97.5721,VALID,0,VALID,18.6694,VALID,140,VALID,0.795703,
2012-04-20, 03:12:05,VALID,915.768,VALID,0,VALID,97.5416,VALID,0,VALID,18.6304,VALID,140,VALID,0.523047,
2012-04-20, 03:13:05,VALID,915.762,VALID,0,VALID,97.5569,VALID,0,VALID,18.6109,VALID,140,VALID,0.409766,
2012-04-20, 03:14:05,VALID,915.778,VALID,0,VALID,97.5492,VALID,0,VALID,18.5705,VALID,140,VALID,0.385938,
2012-04-20, 03:15:05,VALID,915.759,VALID,0,VALID,97.5416,VALID,0,VALID,18.5316,VALID,140,VALID,0.445703,
2012-04-20, 03:16:05,VALID,915.754,VALID,0,VALID,97.5492,VALID,0,VALID,18.5316,VALID,140,VALID,0.571484,
2012-04-20, 03:17:05,VALID,915.776,VALID,0,VALID,97.5492,VALID,0,VALID,18.5525,VALID,140,VALID,0.585156,
2012-04-20, 03:18:05,VALID,915.743,VALID,0,VALID,97.5645,VALID,0,VALID,18.5316,VALID,140,VALID,0.402734,
2012-04-20, 03:19:05,VALID,915.738,VALID,0,VALID,97.5721,VALID,0,VALID,18.5316,VALID,140,VALID,0.670313,
2012-04-20, 03:20:05,VALID,915.741,VALID,0,VALID,97.5873,VALID,0,VALID,18.572,VALID,140,VALID,0.285937,
2012-04-20, 03:21:05,VALID,915.752,VALID,0,VALID,97.5797,VALID,0,VALID,18.5316,VALID,140,VALID,0,
2012-04-20, 03:22:05,VALID,915.755,VALID,0,VALID,97.5873,VALID,0,VALID,18.5121,VALID,140,VALID,0.426953,
2012-04-20, 03:23:05,VALID,915.742,VALID,0,VALID,97.6026,VALID,0,VALID,18.4926,VALID,140,VALID,0.685547,
2012-04-20, 03:24:05,VALID,915.756,VALID,0,VALID,97.595,VALID,0,VALID,18.4536,VALID,140,VALID,0.549609,
2012-04-20, 03:25:05,VALID,915.764,VALID,0,VALID,97.5721,VALID,0,VALID,18.494,VALID,140,VALID,0.499219,
2012-04-20, 03:26:05,VALID,915.763,VALID,0,VALID,97.6102,VALID,0,VALID,18.494,VALID,140,VALID,0.634766,
2012-04-20, 03:27:05,VALID,915.766,VALID,0,VALID,97.6178,VALID,0,VALID,18.5135,VALID,140,VALID,0.716406,
2012-04-20, 03:28:05,VALID,915.788,VALID,0,VALID,97.6102,VALID,0,VALID,18.4745,VALID,140,VALID,0.896875,
2012-04-20, 03:29:05,VALID,915.789,VALID,0,VALID,97.6178,VALID,0,VALID,18.494,VALID,140,VALID,1.01367,
2012-04-20, 03:30:05,VALID,915.776,VALID,0,VALID,97.6331,VALID,0,VALID,18.4926,VALID,140,VALID,0.873828,
2012-04-20, 03:31:05,VALID,915.785,VALID,0,VALID,97.6331,VALID,0,VALID,18.4731,VALID,140,VALID,0.565234,
2012-04-20, 03:32:05,VALID,915.796,VALID,0,VALID,97.6255,VALID,0,VALID,18.5135,VALID,140,VALID,0.546875,
2012-04-20, 03:33:05,VALID,915.793,VALID,0,VALID,97.656,VALID,0,VALID,18.5135,VALID,140,VALID,0.735937,
2012-04-20, 03:34:05,VALID,915.775,VALID,0,VALID,97.6483,VALID,0,VALID,18.4926,VALID,140,VALID,0.748828,
2012-04-20, 03:35:05,VALID,915.778,VALID,0,VALID,97.6483,VALID,0,VALID,18.4745,VALID,140,VALID,0.729297,
2012-04-20, 03:36:05,VALID,915.778,VALID,0,VALID,97.6483,VALID,0,VALID,18.3756,VALID,140,VALID,0.994531,
2012-04-20, 03:37:05,VALID,915.78,VALID,0,VALID,97.6407,VALID,0,VALID,18.377,VALID,140,VALID,0.922656,
2012-04-20, 03:38:05,VALID,915.735,VALID,0,VALID,97.6407,VALID,0,VALID,18.4355,VALID,140,VALID,1.1332,
2012-04-20, 03:39:05,VALID,915.726,VALID,0,VALID,97.6636,VALID,0,VALID,18.4745,VALID,140,VALID,0.942969,
2012-04-20, 03:40:05,VALID,915.719,VALID,0,VALID,97.6636,VALID,0,VALID,18.4341,VALID,139,VALID,1.09453,
2012-04-20, 03:41:05,VALID,915.694,VALID,0,VALID,97.656,VALID,0,VALID,18.4731,VALID,126,VALID,1.22266,
2012-04-20, 03:42:05,VALID,915.711,VALID,0,VALID,97.6788,VALID,0,VALID,18.4926,VALID,127,VALID,1.04258,
2012-04-20, 03:43:05,VALID,915.701,VALID,0,VALID,97.6788,VALID,0,VALID,18.4926,VALID,138,VALID,1.12266,
2012-04-20, 03:44:05,VALID,915.677,VALID,0,VALID,97.7017,VALID,0,VALID,18.4731,VALID,138,VALID,0.970703,
2012-04-20, 03:45:05,VALID,915.654,VALID,0,VALID,97.6941,VALID,0,VALID,18.494,VALID,138,VALID,1.16172,
2012-04-20, 03:46:05,VALID,915.672,VALID,0,VALID,97.7017,VALID,0,VALID,18.4536,VALID,138,VALID,0.627734,